Weather Roundup
Issued by NWS Chicago, IL

Home | Current Version | Previous Version | Text Only | Print | Product List | Glossary Off
Versions: 1 2 3 4 5 6 7 8 9 10 11 12 13 14 15 16 17 18 19 20 21 22 23 24 25 26 27 28 29 30 31 32 33 34 35 36 37 38 39 40 41 42 43 44 45 46 47 48 49 50

000
NZUS59 KLOT 280121
HRRLOT

CHICAGO AREA WEATHER ROUNDUP
NATIONAL WEATHER SERVICE CHICAGO/ROMEOVILLE IL
800 PM CDT FRI MAR 27 2015

NOTE: "FAIR" INDICATES FEW OR NO CLOUDS BELOW 12,000 FEET WITH NO
SIGNIFICANT WEATHER AND/OR OBSTRUCTIONS TO VISIBILITY.

* THESE STATIONS ARE NOT UNDER NWS QUALITY CONTROL. THEY ALSO MAY NOT
  REPORT WEATHER SUCH AS PRECIPITATION OR FOG.

ILZ005-006-012>014-019>023-280200-
NORTHEAST ILLINOIS

CITY           SKY/WX    TMP DP  RH WIND       PRES   REMARKS
OHARE          PTCLDY    25  14  63 N12       30.18S WCI  14
MIDWAY         PTCLDY    26  13  57 NE14      30.19R WCI  14
AURORA         CLEAR     27  13  55 NE10      30.18R WCI  17
LANSING*       CLEAR     25  11  56 N12G17    30.19S WCI  14
JOLIET*        CLEAR     28  14  55 NE8       30.19R WCI  20
WAUKEGAN         N/A     23  13  65 N6        30.19R WCI  16
DUPAGE AIRPORT CLEAR     25  13  60 E10       30.18R WCI  15
WHEELING       CLEAR     24  12  60 NE9       30.21R WCI  14
KANKAKEE*      CLEAR     25  15  65 NE12      30.18S WCI  15
MORRIS*        CLEAR     28  15  60 E7        30.17R WCI  20
LEWIS AIRPORT* CLEAR     26  14  61 NE9       30.18R WCI  16
NORTHERLY IS     N/A     25  13  60 MISG        N/A
$$

WIZ051-052-058>065-066-070>072-280200-
SOUTHEAST WISCONSIN

CITY           SKY/WX    TMP DP  RH WIND       PRES   REMARKS
MILWAUKEE      PTCLDY    23  11  60 N8        30.20R WCI  14
KENOSHA*       CLEAR     23  13  65 NE8       30.19R WCI  14
RACINE*        CLEAR     23  12  62 NE12      30.21R WCI  12
BURLINGTON     CLEAR     21  12  68 E6        30.19R WCI  14
WAUKESHA       CLEAR     25   5  42 NE10      30.19R WCI  15
WEST BEND      CLEAR     21  10  63 NE5       30.19R WCI  15
$$

INZ001>003-010>013-019-020-280200-
NORTHWEST INDIANA

CITY           SKY/WX    TMP DP  RH WIND       PRES   REMARKS
GARY*          PTCLDY    27  10  50 N20       30.20R WCI  13
MICHIGAN CITY* NOT AVBL
RENSSELAER*    NOT AVBL
VALPARAISO     CLEAR     21  11  65 N12G17    30.17R WCI   9
$$

LMZ740>746-280200-
SOUTHERN LAKE MICHIGAN

STATION/POSITION TIME  SKY/WX   TEMP WIND        PRES    VSBY
                                AIR  DIR/SP/G
                 (UTC)          (F)  (DEG/KT/KT) (MB)    (MI)
HARRISON CRIB    0100            25  360/ 19/ 23   N/A
BURNHAM HARBOR   0100            25   10/ 13/ 18   N/A
CALUMET HARBOR   0000            25  350/ 13/ 18 1021.0R
BURNS HARBOR     0040            25   10/ 17/ 25 1022.4R
MICHIGAN CITY    0100            23  350/ 21/ 26   N/A
$$

ABBREVIATIONS USED IN REMARKS
   TC - TEMPERATURE IN CELSIUS
  WCI - WIND CHILL INDEX
   HX - HEAT INDEX
  VSB - VISIBILITY
$$



USA.gov is the U.S. government's official web portal to all federal, state and local government web resources and services.